This demonstration page uses our WeatherBlox Daily Observations layout. Learn more.

38.89511, -77.03637

Hourly Observations for December 12, 2016

Temp ( °F °C ) Dew Point ( °F °C ) Humidity (%) Winds ( mph kmh ) Pressure ( in mb ) Visibility ( mi km ) Precip ( " mm )
12:03 am 00:03 Cloudy 43 6 28 -2 57 57 S 14 22 30.09 1019 10 16.0934 0 0
12:52 am 00:52 Cloudy 44 6.7 29 -1.7 55 55 SSW 16 26 30.07 1018 10 16.0934 0 0
1:52 am 01:52 Cloudy 41 5 34 1.1 76 76 SSW 12 19 30.04 1017 10 16.0934 0 0
2:52 am 02:52 Cloudy 41 5 37 2.8 86 86 S 15 24 30 1016 10 16.0934 0 0
3:52 am 03:52 Cloudy 42 5.6 37 2.8 82 82 SW 7 11 30.01 1016 10 16.0934 0 0
4:52 am 04:52 Cloudy with Rain 42 5.6 39 3.9 89 89 S 10 17 29.96 1015 6 9.65604 0.02 0.508
5:08 am 05:08 Cloudy with Rain 41 5 39 4 93 93 S 12 19 29.97 1015 5 8.0467 0 0
5:36 am 05:36 Cloudy with Rain 41 5 39 4 93 93 S 12 19 29.94 1014 4 6.43736 0 0
5:52 am 05:52 Cloudy with Rain 42 5.6 41 5 96 96 S 12 19 29.94 1014 4 6.43736 0.12 3.048
5:58 am 05:58 Cloudy with Light Rain 43 6 41 5 93 93 SSW 10 17 29.94 1014 7 11.26538 0 0
6:05 am 06:05 Cloudy with Light Rain 42 5.6 42 5.6 100 100 S 12 19 29.94 1014 7 11.26538 0.01 0.254
6:38 am 06:38 Cloudy with Light Rain 43 6 43 6 100 100 SSW 13 20 29.94 1014 10 16.0934 0 0
6:46 am 06:46 Cloudy 45 7 43 6 93 93 SSW 13 20 29.94 1014 10 16.0934 0 0
6:52 am 06:52 Cloudy with Light Rain 44 6.7 43 6.1 96 96 SSW 14 22 29.93 1014 10 16.0934 0.02 0.508
7:52 am 07:52 Cloudy 45 7.2 44 6.7 97 97 SSW 9 15 29.92 1013 10 16.0934 0 0.0254
8:52 am 08:52 Cloudy 46 7.8 45 7.2 96 96 SSW 8 13 29.92 1013 10 16.0934 0 0
9:52 am 09:52 Cloudy 47 8.3 45 7.2 93 93 SSW 8 13 29.91 1013 10 16.0934 0 0
10:52 am 10:52 Cloudy 48 8.9 46 7.8 93 93 SSW 7 11 29.9 1013 10 16.0934 0 0
11:52 am 11:52 Cloudy 48 8.9 46 7.8 93 93 SSW 7 11 29.88 1012 10 16.0934 0 0
12:25 pm 12:25 Cloudy 49 9.4 47 8.3 93 93 SSW 3 6 29.85 1011 10 16.0934 0 0
12:52 pm 12:52 Cloudy 49 9.4 47 8.3 93 93 S 3 6 29.86 1011 10 16.0934 0 0
1:52 pm 13:52 Mostly Cloudy 51 10.6 48 8.9 89 89 VRB 3 6 29.85 1011 10 16.0934 0 0
2:52 pm 14:52 Partly Cloudy 54 12.2 47 8.3 77 77 NNW 8 13 29.87 1011 10 16.0934 0 0
3:52 pm 15:52 Partly Cloudy 54 12.2 43 6.1 67 67 NNW 12 19 29.88 1012 10 16.0934 0 0
4:52 pm 16:52 Partly Cloudy 52 11.1 41 5 66 66 NNW 6 9 29.91 1013 10 16.0934 0 0
5:52 pm 17:52 Mostly Clear 49 9.4 40 4.4 71 71 NNW 9 15 29.94 1014 10 16.0934 0 0
6:52 pm 18:52 Partly Cloudy 47 8.3 39 3.9 74 74 NNW 9 15 29.98 1015 10 16.0934 0 0
7:52 pm 19:52 Partly Cloudy 48 8.9 36 2.2 63 63 NNW 10 17 30.01 1016 10 16.0934 0 0
8:52 pm 20:52 Mostly Cloudy 48 8.9 33 0.6 56 56 NW 16 26 30.04 1017 10 16.0934 0 0
9:52 pm 21:52 Mostly Cloudy 48 8.9 31 -0.6 52 52 NW 12 19 30.07 1018 10 16.0934 0 0
10:52 pm 22:52 Mostly Cloudy 47 8.3 31 -0.6 54 54 NW 16 26 30.08 1019 10 16.0934 0 0
11:52 pm 23:52 Mostly Cloudy 46 7.8 32 0 58 58 NNW 10 17 30.1 1019 10 16.0934 0 0

Powered by AerisWeather